User: anonymous   Login
Location: Morlupo
(42.1333°N, 12.5000°E)
Time: 22:59:40
(UTC+00:00)
Language:

Milstar 3 Cent rocket - Orbit

View from above orbital plane
View from above orbital plane
View from above satellite
View from above satellite

Ground track
Ground track

The orbit data is extracted from the following two-line orbital elements,

1 25725U 99023B   20328.57386235 +.00000036 +00000-0 +24225-4 0  9996
2 25725 028.3189 063.4149 2384288 008.7839 354.7746 09.67264190060232
Epoch (UTC): 23 November 2020 13:46:21
Eccentricity: 0.2384288
inclination: 28.3189°
perigee height: 708 km
apogee height: 5145 km
right ascension of ascending node: 63.4149°
argument of perigee: 8.7839°
revolutions per day: 9.67264190
mean anomaly at epoch: 354.7746°
orbit number at epoch: 6023

The dashed part of the orbit path shows where the satellite is in the earth's shadow,  

DLR